Weather in Kuala Belait

Brunei     4°34′45″N   114°13′03″E
temp.,
°C
wind,
m/s
gust,
m/s
humid.,
%
clouds,
%
prec.,
mm/h
press.,
hPa
HPBL,
m
8 march, mon
mon823:00+24nne169569 0.8 1012179
02:00+24n019682 5.9 101074
05:00+24e0196100 2.0 101056
08:00+25s139694 5.6 1012149
11:00+29ese118187 5.1 1012422
14:00+28nne358494 11.7 1009496
17:00+27nne3782100 1.6 1008571
20:00+24ne2994100 3.6 1010341
9 march, tue
tue923:00+24ne2995100 5.5 1012378
02:00+23e1398100 13.9 1011114
05:00+23s1299100 1.6 101082
08:00+23s1396100 1.6 1012115
11:00+27s1178100 0.0 1012512
14:00+31wnw2264100 0.3 10101056
17:00+27wnw1489100 4.9 1009310
20:00+24nw0196100 6.1 101124
10 march, wed
wed1023:00+24e1297100 0.9 101268
02:00+23se1299100 1.9 101148
05:00+22sse1299100 0.1 101094
08:00+23s1395100 0.1 1012145
11:00+31s1260100 0.0 1012974
14:00+31nnw3261100 0.3 10091033
17:00+28nw3571100 0.2 1008730
20:00+24nnw1192100 0.3 101131
11 march, thu
thu1123:00+23ese019796 1.4 101224
02:00+23sse129998 1.7 101145
05:00+22sse139979 0.2 1010103
08:00+24s249456 0.2 1012216
11:00+31s126525 0.8 1012873
14:00+30nnw226846 2.1 1008803
17:00+28nnw257371 0.9 1008517
20:00+24nne269168 0.9 1010204
12 march, fri
fri1223:00+24ne149538 0.0 1012134
02:00+23se119819 0.3 101025
05:00+22s119930 0.4 101029
08:00+24sse129265 0.6 1012120
11:00+31ne1263100 0.1 10111011
14:00+30n2366100 1.5 1008891
17:00+28n3677100 0.3 1008630
20:00+25nne279099 0.3 1010378